DW6064 Weather Reports


time (UTC)temp
C
wind
direction
speed
KPH
gust
KPH
rain 1hr
cm
rain 24hr
cm
rain mn
cm
humidity
%
barometer
mb
20260904040034 21 144 8.0 14.5 0.10 0.56 0.00 89 1014.0
20260904035557 21 174 6.4 9.7 0.13 0.56 0.56 88 1014.3
20260904035036 21 144 4.8 6.4 0.13 0.56 0.56 88 1014.5
20260904034532 22 144 1.6 12.9 0.15 0.56 0.56 88 1014.6
20260904034030 22 138 8.0 14.5 0.15 0.56 0.56 88 1014.7
20260904033551 22 132 9.7 14.5 0.18 0.56 0.56 87 1014.9
20260904033030 22 128 9.7 14.5 0.18 0.53 0.53 86 1014.9
20260904032526 22 196 1.6 9.7 0.18 0.51 0.51 87 1015.1
20260904032051 22 196 1.6 9.7 0.18 0.48 0.48 86 1015.3
20260904031527 22 185 3.2 9.7 0.18 0.48 0.48 86 1015.8
20260904031032 22 185 8.0 9.7 0.18 0.48 0.48 87 1015.9
20260904030529 22 255 1.6 12.9 0.15 0.46 0.46 86 1016.1
20260904030029 22 255 0.0 12.9 0.18 0.46 0.46 85 1016.2
20260904025551 22 264 1.6 14.5 0.15 0.43 0.43 85 1016.3
20260904025029 22 278 6.4 14.5 0.15 0.43 0.43 85 1016.3
20260904024547 23 269 1.6 8.0 0.13 0.41 0.41 86 1016.2
20260904024025 23 247 1.6 8.0 0.13 0.41 0.41 87 1016.2
20260904023542 23 151 1.6 8.0 0.10 0.38 0.38 87 1016.1
20260904023042 23 187 3.2 9.7 0.08 0.36 0.36 87 1016.2
20260904022539 23 187 6.4 9.7 0.05 0.33 0.33 85 1016.1
20260904022038 23 215 3.2 11.3 0.05 0.30 0.30 85 1016.0
20260904021535 23 184 4.8 8.0 0.05 0.30 0.30 84 1015.7
20260904021033 23 181 4.8 12.9 0.05 0.30 0.30 83 1015.7
20260904020532 23 184 3.2 16.1 0.05 0.30 0.30 82 1015.2
20260904020031 23 175 9.7 20.9 0.03 0.28 0.28 81 1014.6
20260904015529 24 152 17.7 20.9 0.03 0.28 0.28 81 1014.7
20260904015031 24 154 9.7 17.7 0.03 0.28 0.28 80 1014.3
20260904014527 24 143 4.8 27.4 0.03 0.28 0.28 77 1014.0
20260904014051 24 222 8.0 32.2 0.03 0.28 0.28 77 1014.3
20260904013528 25 299 16.1 32.2 0.03 0.28 0.28 77 1014.0
20260904013028 25 338 12.9 45.1 0.03 0.28 0.28 77 1013.8
20260904012525 26 274 22.5 56.3 0.03 0.28 0.28 76 1014.8
20260904012044 26 272 24.1 56.3 0.00 0.25 0.25 82 1015.1
20260904011543 27 148 0.0 3.2 0.00 0.25 0.25 85 1014.3
20260904011041 27 148 0.0 0.0 0.00 0.25 0.25 84 1014.1
20260904010538 27 148 0.0 1.6 0.00 0.25 0.25 84 1013.9
20260904010037 27 148 0.0 3.2 0.00 0.25 0.25 84 1013.7
20260904005535 27 148 0.0 8.0 0.00 0.25 0.25 82 1013.8
20260904005033 27 148 3.2 8.0 0.00 0.25 0.25 82 1013.8
20260904004529 27 131 3.2 4.8 0.00 0.25 0.25 81 1013.8
20260904004052 27 131 3.2 4.8 0.00 0.25 0.25 81 1013.7
20260904003529 27 131 1.6 4.8 0.00 0.25 0.25 81 1013.7
20260904003054 27 131 0.0 8.0 0.00 0.25 0.25 81 1013.8
20260904002530 27 131 4.8 8.0 0.00 0.25 0.25 80 1013.7
20260904002033 27 141 4.8 8.0 0.00 0.25 0.25 80 1013.7
20260904001531 27 175 3.2 6.4 0.00 0.25 0.25 80 1013.7
20260904001030 27 175 3.2 6.4 0.00 0.25 0.25 79 1013.9
20260904000552 28 175 3.2 6.4 0.00 0.25 0.25 79 1013.9
20260904000031 28 175 3.2 6.4 0.00 0.25 0.25 79 1014.2
20260903235528 28 175 4.8 6.4 0.00 0.25 0.25 79 1014.2
20260903235027 28 178 3.2 4.8 0.00 0.25 0.25 78 1014.1
20260903234524 28 178 3.2 4.8 0.00 0.25 0.25 78 1014.2
20260903234042 28 178 3.2 6.4 0.00 0.25 0.25 77 1014.3
20260903233540 28 178 4.8 6.4 0.00 0.25 0.25 77 1014.4
20260903233039 28 140 3.2 4.8 0.00 0.25 0.25 76 1014.3
20260903232601 28 140 3.2 4.8 0.00 0.25 0.25 76 1014.0
20260903232039 28 140 3.2 4.8 0.00 0.25 0.25 75 1013.9
20260903231536 28 140 0.0 8.0 0.00 0.25 0.25 75 1013.6
20260903231034 29 119 3.2 8.0 0.00 0.25 0.25 74 1013.3
20260903230531 29 128 4.8 9.7 0.00 0.25 0.25 74 1013.1
20260903230030 29 182 3.2 4.8 0.00 0.25 0.25 73 1013.2
20260903225532 29 182 3.2 4.8 0.00 0.25 0.25 73 1013.3
20260903225052 29 182 1.6 8.0 0.00 0.25 0.25 73 1013.4
20260903224528 30 182 3.2 8.0 0.00 0.25 0.25 72 1013.4
20260903224027 30 182 4.8 8.0 0.00 0.25 0.25 71 1013.4
20260903223524 30 182 4.8 9.7 0.00 0.25 0.25 71 1013.3
20260903223043 30 164 6.4 9.7 0.00 0.25 0.25 71 1013.3
20260903222540 30 167 6.4 11.3 0.00 0.25 0.25 70 1013.4
20260903222040 30 186 4.8 11.3 0.00 0.25 0.25 70 1013.4
20260903221535 30 178 8.0 14.5 0.00 0.25 0.25 69 1013.2
20260903221034 30 168 9.7 14.5 0.00 0.25 0.25 69 1013.2
20260903220531 30 183 6.4 12.9 0.00 0.25 0.25 69 1013.3
20260903220031 30 130 8.0 12.9 0.00 0.25 0.25 68 1013.3
20260903215531 30 132 9.7 12.9 0.00 0.25 0.25 68 1013.1
20260903215031 30 171 8.0 12.9 0.00 0.25 0.25 67 1013.2
20260903214529 31 161 9.7 14.5 0.00 0.25 0.25 67 1013.2
20260903214029 31 188 9.7 19.3 0.00 0.25 0.25 66 1013.2
20260903213552 31 195 14.5 19.3 0.00 0.25 0.25 65 1013.3
20260903213033 31 190 8.0 14.5 0.00 0.25 0.25 66 1013.2
20260903212532 31 150 11.3 14.5 0.00 0.25 0.25 66 1013.3
20260903212056 31 161 11.3 16.1 0.00 0.25 0.25 66 1013.3
20260903211534 31 138 9.7 16.1 0.00 0.25 0.25 65 1013.4
20260903211031 31 155 8.0 16.1 0.00 0.25 0.25 66 1013.2
20260903210530 31 168 9.7 17.7 0.00 0.25 0.25 67 1013.3
20260903210028 30 205 9.7 17.7 0.00 0.25 0.25 66 1013.4
20260903205526 30 168 12.9 17.7 0.00 0.25 0.25 67 1013.3
20260903205025 30 183 12.9 17.7 0.00 0.25 0.25 66 1013.3
20260903204543 30 189 11.3 20.9 0.00 0.25 0.25 66 1013.4
20260903204043 30 178 14.5 20.9 0.00 0.25 0.25 67 1013.5
20260903203541 31 200 16.1 20.9 0.00 0.25 0.25 65 1013.7
20260903203040 31 209 14.5 17.7 0.00 0.25 0.25 67 1013.5
20260903202539 31 174 11.3 24.1 0.00 0.25 0.25 66 1013.5
20260903202103 31 236 6.4 24.1 0.00 0.25 0.25 66 1013.5
20260903201540 30 180 14.5 22.5 0.00 0.25 0.25 66 1013.6
20260903201042 31 194 16.1 20.9 0.00 0.25 0.25 65 1013.9
20260903200541 30 168 17.7 24.1 0.00 0.25 0.25 65 1013.9
20260903200039 31 185 16.1 24.1 0.00 0.25 0.25 66 1013.9
20260903195535 31 160 11.3 17.7 0.00 0.25 0.25 65 1013.9
20260903195036 30 161 11.3 20.9 0.00 0.25 0.25 67 1013.9
20260903194531 30 217 14.5 20.9 0.00 0.25 0.25 64 1014.1
20260903194031 31 178 14.5 20.9 0.00 0.25 0.25 66 1014.1
20260903193553 30 153 11.3 16.1 0.00 0.25 0.25 66 1014.1
20260903193031 30 191 8.0 19.3 0.00 0.25 0.25 66 1014.3
20260903192529 30 219 9.7 19.3 0.00 0.25 0.25 65 1014.3
20260903192028 30 205 8.0 20.9 0.00 0.25 0.25 65 1014.4
20260903191526 30 210 9.7 20.9 0.00 0.25 0.25 68 1014.4
20260903191025 30 183 12.9 19.3 0.00 0.25 0.25 67 1014.7
20260903190543 29 186 8.0 17.7 0.00 0.25 0.25 68 1014.7
20260903190026 29 238 14.5 19.3 0.00 0.25 0.25 67 1014.8
20260903185544 29 209 4.8 14.5 0.00 0.25 0.25 67 1014.9
20260903185044 29 227 4.8 20.9 0.00 0.25 0.25 70 1015.0
20260903184541 29 191 16.1 20.9 0.00 0.25 0.25 69 1015.1
20260903184041 28 188 16.1 20.9 0.00 0.25 0.25 70 1015.1
20260903183537 28 232 12.9 25.7 0.00 0.25 0.25 72 1015.2
20260903183036 28 180 17.7 25.7 0.00 0.25 0.25 71 1015.3
20260903182532 28 190 14.5 22.5 0.00 0.25 0.25 72 1015.3
20260903182032 28 201 14.5 22.5 0.00 0.25 0.25 71 1015.4
20260903181529 28 213 14.5 25.7 0.00 0.25 0.25 71 1015.4
20260903181028 28 181 12.9 25.7 0.00 0.25 0.25 71 1015.4
20260903180526 28 153 11.3 24.1 0.00 0.25 0.25 73 1015.4
20260903180051 28 251 6.4 22.5 0.00 0.25 0.25 74 1015.5
20260903175528 28 203 11.3 24.1 0.00 0.28 0.25 73 1015.6
20260903175052 27 168 12.9 27.4 0.00 0.28 0.25 72 1015.6
20260903174549 27 221 8.0 20.9 0.00 0.28 0.25 70 1015.8
20260903174027 27 236 8.0 22.5 0.00 0.28 0.25 73 1015.8
20260903173530 27 198 11.3 22.5 0.00 0.28 0.25 74 1015.9
20260903173049 27 180 9.7 20.9 0.00 0.28 0.25 75 1016.1
20260903172546 26 192 9.7 20.9 0.00 0.28 0.25 76 1016.0
20260903172044 26 194 12.9 20.9 0.00 0.28 0.25 78 1016.2
20260903171541 26 207 11.3 20.9 0.00 0.28 0.25 77 1016.3
20260903171040 25 173 17.7 24.1 0.00 0.28 0.25 78 1016.4
20260903170538 25 184 17.7 24.1 0.00 0.28 0.25 76 1016.4
20260903170037 25 194 9.7 19.3 0.00 0.28 0.25 79 1016.3
20260903165535 25 174 12.9 20.9 0.00 0.97 0.25 79 1016.5
20260903165034 25 191 14.5 20.9 0.00 0.97 0.25 82 1016.5
20260903164557 24 176 11.3 19.3 0.00 0.97 0.25 83 1016.7
20260903164034 24 186 8.0 19.3 0.00 0.97 0.25 83 1016.7
20260903163529 23 207 12.9 19.3 0.00 0.97 0.25 84 1016.8
20260903163055 23 232 11.3 16.1 0.00 0.97 0.25 84 1017.0
20260903162555 23 187 11.3 16.1 0.00 0.97 0.25 85 1017.0
20260903162034 23 173 9.7 14.5 0.00 0.97 0.25 86 1016.9
20260903161551 23 220 4.8 19.3 0.00 0.97 0.25 86 1017.0
20260903161054 23 192 12.9 19.3 0.00 0.97 0.25 85 1017.0
20260903160553 23 183 14.5 19.3 0.00 0.97 0.25 89 1017.1
20260903160031 22 267 11.3 19.3 0.00 0.97 0.25 89 1017.1
20260903155529 22 184 12.9 17.7 0.00 1.07 0.25 89 1017.4
20260903155028 22 183 9.7 20.9 0.00 1.07 0.25 89 1017.6
20260903154529 22 205 8.0 20.9 0.03 1.07 0.25 90 1017.8
20260903154027 22 224 6.4 22.5 0.03 1.07 0.25 90 1017.9
20260903153525 22 210 6.4 25.7 0.03 1.07 0.25 89 1018.1
20260903153043 22 240 11.3 25.7 0.05 1.07 0.25 90 1018.2
20260903152540 22 252 9.7 19.3 0.08 1.07 0.25 90 1018.1
20260903152039 22 221 4.8 17.7 0.10 1.07 0.25 91 1018.0
20260903151538 22 220 6.4 14.5 0.13 1.07 0.25 91 1017.6
20260903151100 22 198 3.2 14.5 0.15 1.07 0.25 92 1017.5
20260903150603 22 207 8.0 14.5 0.20 1.07 0.25 91 1017.1
20260903150040 22 146 9.7 14.5 0.20 1.07 0.25 91 1016.8
20260903145538 21 146 4.8 17.7 0.20 1.07 0.25 91 1016.6
20260903145037 21 114 6.4 20.9 0.18 1.04 0.23 90 1016.6
20260903144534 22 132 14.5 22.5 0.18 1.04 0.23 90 1016.7
20260903144034 22 120 14.5 22.5 0.18 1.04 0.23 90 1017.2
20260903143531 22 141 11.3 16.1 0.18 1.04 0.23 89 1018.1
20260903143030 22 137 9.7 14.5 0.15 1.02 0.20 89 1018.5
20260903142532 22 178 6.4 8.0 0.13 0.99 0.18 88 1019.1
20260903142031 22 203 1.6 8.0 0.10 0.97 0.15 87 1019.4
20260903141554 22 311 1.6 14.5 0.05 0.91 0.10 86 1019.6
20260903141032 22 311 3.2 25.7 0.03 0.89 0.08 86 1019.2
20260903140529 22 333 8.0 33.8 0.00 0.86 0.05 86 1019.6
20260903140028 22 318 22.5 33.8 0.00 0.86 0.05 87 1019.5
20260903135545 22 292 12.9 29.0 0.00 0.86 0.05 88 1019.3
20260903135042 22 186 9.7 14.5 0.00 0.86 0.05 88 1017.3
20260903134539 23 183 9.7 12.9 0.00 0.86 0.05 88 1017.0
20260903134038 23 207 4.8 14.5 0.00 0.86 0.05 88 1016.8
20260903133534 23 163 9.7 16.1 0.00 0.86 0.05 88 1016.9
20260903133033 23 174 9.7 16.1 0.00 0.86 0.05 88 1017.0
20260903132531 23 163 8.0 17.7 0.00 0.86 0.05 88 1017.0
20260903132055 23 203 6.4 14.5 0.00 0.86 0.05 88 1016.9
20260903131532 23 215 6.4 14.5 0.00 0.86 0.05 88 1017.1
20260903131031 23 225 1.6 14.5 0.00 0.86 0.05 89 1017.2
20260903130529 22 204 3.2 14.5 0.00 0.86 0.05 90 1017.3
20260903130032 22 185 6.4 14.5 0.00 0.86 0.05 89 1017.4
20260903125529 22 240 4.8 12.9 0.00 0.86 0.05 89 1017.4
20260903125028 22 217 3.2 14.5 0.00 0.86 0.05 91 1017.5
20260903124526 22 211 4.8 14.5 0.00 0.86 0.05 92 1017.5
20260903124026 22 219 3.2 12.9 0.00 0.86 0.05 92 1017.6
20260903123543 22 254 6.4 14.5 0.00 0.86 0.05 92 1017.6
20260903123042 22 214 6.4 16.1 0.00 0.86 0.05 92 1017.4
20260903122540 22 199 6.4 16.1 0.00 0.86 0.05 92 1017.2
20260903122039 22 171 3.2 12.9 0.00 0.86 0.05 92 1017.2
20260903121600 22 203 3.2 11.3 0.00 0.86 0.05 93 1017.4
20260903121039 22 186 6.4 11.3 0.00 0.86 0.05 93 1017.2
20260903120535 21 189 8.0 11.3 0.00 0.86 0.05 93 1017.4
20260903120035 21 157 4.8 12.9 0.03 0.86 0.05 93 1017.3
20260903115532 21 184 8.0 12.9 0.03 0.86 0.05 92 1017.3
20260903115032 21 203 3.2 9.7 0.03 0.86 0.05 92 1017.7
20260903114533 21 172 3.2 9.7 0.03 0.86 0.05 92 1017.9
20260903114033 21 185 3.2 8.0 0.03 0.86 0.05 92 1017.8
20260903113528 21 242 0.0 9.7 0.03 0.86 0.05 92 1017.6
20260903113027 21 165 1.6 12.9 0.03 0.86 0.05 92 1017.5
20260903112546 21 242 6.4 12.9 0.03 0.86 0.05 92 1017.7
20260903112044 21 238 6.4 11.3 0.03 0.86 0.05 92 1017.6
20260903111540 21 258 1.6 11.3 0.03 0.86 0.05 92 1017.3
20260903111038 21 190 0.0 8.0 0.03 0.86 0.05 92 1017.3
20260903110535 21 211 4.8 12.9 0.00 0.84 0.03 92 1017.3
20260903110035 21 158 4.8 12.9 0.00 0.84 0.03 91 1017.2
20260903105533 21 124 8.0 11.3 0.00 0.84 0.03 91 1017.3
20260903105032 21 134 4.8 8.0 0.00 0.84 0.03 91 1017.6
20260903104529 21 84 1.6 4.8 0.03 0.84 0.03 92 1018.1
20260903104053 21 315 1.6 4.8 0.03 0.84 0.03 91 1018.4
20260903103530 21 315 1.6 4.8 0.03 0.84 0.03 91 1018.7
20260903103052 21 315 0.0 4.8 0.03 0.84 0.03 91 1018.4
20260903102553 21 315 1.6 3.2 0.03 0.84 0.03 91 1018.5
20260903102050 22 315 0.0 4.8 0.03 0.84 0.03 91 1018.2
20260903101552 21 315 1.6 6.4 0.03 0.84 0.03 91 1018.3
20260903101050 21 346 4.8 6.4 0.03 0.84 0.03 91 1018.1
20260903100553 21 30 1.6 6.4 0.03 0.84 0.03 91 1017.7
20260903100031 22 77 0.0 14.5 0.03 0.84 0.03 90 1017.5
20260903095549 22 74 3.2 14.5 0.03 0.84 0.03 90 1017.4
20260903095031 22 70 1.6 14.5 0.03 0.84 0.03 90 1018.0
20260903094528 22 30 6.4 14.5 0.00 0.81 0.00 90 1018.8
20260903094028 22 5 6.4 12.9 0.00 0.81 0.00 90 1018.8
20260903093545 22 82 4.8 14.5 0.00 0.81 0.00 89 1017.9
20260903093044 22 53 4.8 14.5 0.00 0.81 0.00 89 1018.5
20260903092541 22 9 3.2 16.1 0.00 0.81 0.00 89 1018.5
20260903092041 22 22 3.2 20.9 0.00 0.81 0.00 88 1018.2
20260903091537 22 51 9.7 29.0 0.00 0.81 0.00 87 1017.8
20260903091038 22 33 11.3 37.0 0.00 0.81 0.00 87 1018.1
20260903090533 22 85 20.9 37.0 0.00 0.81 0.00 88 1018.2
20260903090032 22 337 9.7 16.1 0.00 0.81 0.00 88 1017.8
20260903085528 22 29 1.6 8.0 0.00 0.81 0.00 88 1017.3
20260903085026 22 71 1.6 12.9 0.00 0.81 0.00 88 1017.3
20260903084524 22 45 1.6 14.5 0.00 0.81 0.00 88 1017.2
20260903084044 22 16 1.6 17.7 0.00 0.81 0.00 88 1017.3
20260903083525 22 43 4.8 17.7 0.00 0.81 0.00 88 1017.3
20260903083044 22 29 3.2 16.1 0.00 0.81 0.00 88 1017.5
20260903082541 22 5 6.4 14.5 0.00 0.81 0.00 88 1017.5
20260903082104 22 22 3.2 16.1 0.00 0.81 0.00 89 1017.5
20260903081541 22 360 3.2 19.3 0.00 0.81 0.00 89 1017.3
20260903081040 22 53 6.4 19.3 0.00 0.81 0.00 89 1017.2
20260903080538 22 59 6.4 20.9 0.00 0.81 0.00 89 1017.2
20260903080036 22 40 6.4 20.9 0.00 0.81 0.00 90 1017.2
20260903075533 22 55 9.7 19.3 0.00 0.81 0.00 90 1017.2
20260903075033 22 44 4.8 22.5 0.00 0.81 0.00 90 1017.3
20260903074530 22 337 11.3 22.5 0.00 0.81 0.00 90 1017.2
20260903074056 22 355 9.7 24.1 0.00 0.81 0.00 90 1017.1
20260903073557 22 9 11.3 24.1 0.00 0.81 0.00 90 1017.2
20260903073035 22 319 8.0 16.1 0.00 0.81 0.00 90 1017.0
20260903072558 22 157 1.6 6.4 0.00 0.81 0.00 89 1016.5
20260903072036 22 174 1.6 4.8 0.00 0.81 0.00 89 1016.4
20260903071537 22 174 0.0 3.2 0.00 0.81 0.00 90 1016.4
20260903071036 22 174 1.6 4.8 0.00 0.81 0.00 90 1016.3
20260903070534 22 174 1.6 4.8 0.00 0.81 0.00 89 1016.4
20260903070037 22 360 0.0 4.8 0.00 0.81 0.00 90 1016.5
20260903065534 22 360 0.0 4.8 0.00 0.81 0.00 90 1016.5
20260903065058 22 360 3.2 4.8 0.00 0.81 0.00 90 1016.7
20260903064559 22 144 0.0 4.8 0.00 0.81 0.00 89 1016.6
20260903064036 22 144 1.6 4.8 0.00 0.81 0.00 89 1016.4
20260903063533 22 148 4.8 4.8 0.00 0.81 0.00 89 1016.5
20260903063033 22 360 0.0 6.4 0.00 0.81 0.00 89 1016.7
20260903062553 22 360 1.6 8.0 0.00 0.81 0.00 89 1016.8
20260903062032 22 331 4.8 8.0 0.00 0.81 0.00 89 1016.8
20260903061530 22 33 1.6 4.8 0.00 0.81 0.00 89 1016.6
20260903061027 22 33 1.6 4.8 0.00 0.81 0.00 89 1016.6
20260903060526 22 22 1.6 9.7 0.00 0.81 0.00 89 1016.6
20260903060045 22 360 4.8 9.7 0.00 0.81 0.00 89 1016.7
20260903055542 22 5 3.2 9.7 0.00 0.81 0.00 88 1016.6
20260903055042 22 5 3.2 9.7 0.00 0.81 0.00 88 1016.7
20260903054539 22 19 4.8 12.9 0.00 0.81 0.00 88 1016.6
20260903054038 22 11 4.8 14.5 0.00 0.81 0.00 88 1016.6
20260903053540 22 17 6.4 14.5 0.00 0.81 0.00 88 1016.7
20260903053038 22 355 3.2 14.5 0.00 0.81 0.00 87 1016.6
20260903052536 22 346 3.2 8.0 0.00 0.81 0.00 87 1016.7
20260903052036 22 355 3.2 8.0 0.00 0.81 0.00 87 1016.5
20260903051534 22 9 3.2 6.4 0.00 0.81 0.00 86 1016.4
20260903051035 22 59 1.6 6.4 0.00 0.81 0.00 86 1016.5
20260903050532 22 59 1.6 6.4 0.00 0.81 0.00 86 1016.5
20260903050057 22 69 3.2 6.4 0.00 0.81 0.00 86 1016.5
20260903045533 22 32 1.6 6.4 0.00 0.81 0.00 86 1016.6
20260903045032 22 5 4.8 6.4 0.00 0.81 0.00 86 1016.7
20260903044549 22 319 3.2 4.8 0.00 0.81 0.00 86 1016.7
20260903044047 22 281 3.2 4.8 0.00 0.81 0.00 86 1016.7
20260903043543 22 189 1.6 4.8 0.00 0.81 0.00 85 1016.6
20260903043043 22 189 0.0 3.2 0.00 0.81 0.00 85 1016.6
20260903042540 22 189 1.6 3.2 0.00 0.81 0.00 85 1016.4
20260903042038 22 189 0.0 6.4 0.00 0.81 0.00 86 1016.6
20260903041536 22 189 1.6 8.0 0.00 0.81 0.00 85 1016.7
20260903041038 22 189 4.8 8.0 0.00 0.81 0.00 85 1016.7